User: anonymous   Login
Location: Unspecified
(0.0000°N, 0.0000°E)
Time: 20:06:00
(UTC+00:00)
Language:

TBA - TO BE ASSIGNED - Orbit

View from above orbital plane
View from above orbital plane
View from above satellite
View from above satellite

Ground track
Ground track

The orbit is defined by the following mean orbital elements,

1 68560U          26145.58335647 +.00000000 +00000-0 +12519-2 0 00007
2 68560  53.1591   4.7668 0001060  93.3670  17.0260 15.34373341    07
Epoch (UTC): 25 May 2026 14:00:01
Eccentricity: 0.0001060
inclination: 53.1591°
perigee height: 462 km
apogee height: 464 km
right ascension of ascending node: 4.7668°
argument of perigee: 93.3670°
revolutions per day: 15.34373341
mean anomaly at epoch: 17.0260°

The dashed part of the orbit path shows where the satellite is in the earth's shadow,  

DLR